This is the latest recevied weather packets stored in our database for station/object KY4GW. If no packets are shown the sender has not sent any weather packets the latest 10 day(s).
| Time | Temp. | Humidity | Pressure | Rain* | Wind** | Luminosity | Snow |
|---|---|---|---|---|---|---|---|
| 1778023070 | 17.78° C | 72% | 1010.6 hPa | 0 mm | - | 13 W/m² | - |
| 1778022769 | 17.78° C | 74% | 1010.6 hPa | 0 mm | - | 12 W/m² | - |
| 1778022467 | 17.78° C | 73% | 1010.6 hPa | 0 mm | - | 26 W/m² | - |
| 1778022163 | 17.78° C | 77% | 1010.6 hPa | 0 mm | - | 21 W/m² | - |
| 1778021860 | 17.78° C | 74% | 1011 hPa | 0 mm | - | 9 W/m² | - |
| 1778021557 | 17.78° C | 77% | 1011 hPa | 0 mm | - | 14 W/m² | - |
| 1778021252 | 18.33° C | 76% | 1011 hPa | 0 mm | - | 11 W/m² | - |
| 1778020950 | 18.33° C | 76% | 1010.6 hPa | 0 mm | - | 12 W/m² | - |
| 1778020647 | 18.33° C | 76% | 1010.6 hPa | 0 mm | - | 21 W/m² | - |
| 1778020344 | 18.33° C | 77% | 1010.6 hPa | 0 mm | - | 20 W/m² | - |
| 1778020040 | 18.33° C | 77% | 1011 hPa | 0 mm | - | 34 W/m² | - |
| 1778019736 | 18.33° C | 77% | 1011 hPa | 0 mm | - | 58 W/m² | - |
| 1778019433 | 18.33° C | 75% | 1011 hPa | 0 mm | - | 66 W/m² | - |
| 1778019129 | 18.33° C | 77% | 1011.3 hPa | 0 mm | - | 79 W/m² | - |
| 1778018827 | 18.33° C | 77% | 1011.3 hPa | 0 mm | - | 67 W/m² | - |
| 1778018525 | 18.33° C | 78% | 1011.3 hPa | 0 mm | - | 44 W/m² | - |
| 1778018222 | 18.33° C | 75% | 1011.3 hPa | 0 mm | - | 46 W/m² | - |
| 1778017920 | 18.33° C | 75% | 1011.3 hPa | 0 mm | - | 55 W/m² | - |
| 1778017617 | 18.33° C | 75% | 1011.3 hPa | 0 mm | - | 82 W/m² | - |
| 1778017314 | 18.33° C | 76% | 1011.6 hPa | 0 mm | - | 59 W/m² | - |
| 1778017012 | 18.33° C | 77% | 1011.6 hPa | 0 mm | - | 78 W/m² | - |
| 1778016709 | 18.33° C | 75% | 1011.6 hPa | 0 mm | - | 53 W/m² | - |
| 1778016404 | 18.33° C | 76% | 1011.6 hPa | 0 mm | - | 42 W/m² | - |
| 1778016102 | 18.33° C | 73% | 1011.6 hPa | 0 mm | - | 42 W/m² | - |
| 1778015799 | 18.33° C | 73% | 1011.6 hPa | 0 mm | - | 39 W/m² | - |
* Rain latest hour (hover to see other rain measurements)
** Current wind speed in m/s (hover to see current wind gust speed)